Location: La Fredeussais
(48.1780°N, 1.3980°W)
Time: 16:38:48
(UTC+00:00)

USA 306 - Pass Details

Date: 09 May 2021
Orbit: 565 x 575 km, 54.0° (Epoch: 11 May)

Event Time Altitude Azimuth Distance (km) Brightness Sun altitude
Rises 20:36:54 0° 293° (WNW) 2,770 8.0 -9.9°
Reaches altitude 10° 20:39:14 10° 300° (WNW) 1,874 7.0 -10.2°
Maximum altitude 20:43:19 43° 13° (NNE) 808 3.9 -10.7°
Drops below altitude 10° 20:47:24 10° 86° (E) 1,876 5.1 -11.2°
Enters shadow 20:47:59 - 88° (E) 2,094 5.4 -11.3°
